Starlink 3812

operational
NORAD ID: 52346 Int'l Des: 2022-045 Owner: SPXS Country: US Constellation: starlink
LEOCIRCULAR

Starlink 3812について

説明を読み込み中...

リアルタイム位置

3D地球を読み込み中...

次回通過

高度履歴

Altitude vs Time

uPlot chart will show altitude changes over time

軌道要素

1 52346U 22045R 26073.61005489 -.00000260 00000-0 17183-5 0 9998
2 52346 53.2169 177.0440 0001116 87.2922 272.8198 15.08839738216525
Epoch: Mar 14, 2026 • Age: 20 hours

現在のステータス

高度 549.3 km
速度 7.59 km/s
衛星直下点 -29.71°S, 45.14°E
打ち上げ日 Apr 29, 2022
運用期間 3.8 years
タイプ internet

技術仕様

分類 Payload
質量 297.00 kg
乾燥質量 275.00 kg
総質量 297.00 kg
長さ 0.20 m
直径 2.80 m
スパン 9.00 m
形状 Box + pan
製造者 SPXS
バスタイプ Starlink
フェーズステータス In Orbit
所有者/国 SPXS/US

大規模コンステレーション

Loading constellations...